Regional Weather Roundup
Issued by NWS Kansas City/Pleasant Hill, MO

Home | Current Version | Previous Version | Text Only | Print | Product List | Glossary On
Versions: 1 2 3 4 5 6 7 8 9 10 11 12 13 14 15 16 17 18 19 20 21 22 23 24 25 26 27
000
ASUS43 KEAX 152210
RWREAX

WEATHER ROUNDUP FOR EASTERN KANSAS AND NORTHWEST MISSOURI
NATIONAL WEATHER SERVICE KANSAS CITY/PLEASANT HILL MO
400 PM CST FRI DEC 15 2017

KSZ040-057-103>105-MOZ028-029-037-043-152300-
...KANSAS CITY METROPOLITAN AREA...

CITY           SKY/WX    TMP DP  RH WIND       PRES   REMARKS
K.C. INTL      PTCLDY    45  22  40 SW12      30.00F
K.C. DOWNTOWN  CLEAR     47  22  37 SW17      30.01F
LEES SUMMIT    CLEAR     45  22  40 SW14      30.03F
OLATHE - IXD   CLEAR     45  22  40 SW16      30.04F
OLATHE - OJC   CLEAR     44  21  40 SW15      30.03F
LAWRENCE       CLEAR     48  24  39 SW15G21   30.02F

$$

MOZ001>008-011>017-020>025-030>033-038>040-044>046-053-054-152300-
...NORTHERN AND CENTRAL MISSOURI...

CITY           SKY/WX    TMP DP  RH WIND       PRES   REMARKS
ST. JOSEPH     CLEAR     47  23  38 SW15G23   29.97F
MOSBY          CLEAR     45  19  36 SW13      30.01F
WARRENSBURG    CLEAR     43  23  45 SW10G18   30.05S
WHITEMAN AFB   PTCLDY    44  22  43 W13       30.00F
CLINTON        CLEAR     45  23  42 W12       30.07F
SEDALIA        CLEAR     44  26  49 SW12      30.06F
WARSAW         NOT AVBL
CHILLICOTHE      N/A     45  21  38 SW12G18   30.00F
KIRKSVILLE     CLEAR     42  24  49 SW13G23   29.97F

$$

MOZ041-047>049-056>058-063>065-088>090-097-152300-
...EASTERN AND SOUTHERN MISSOURI...

CITY           SKY/WX    TMP DP  RH WIND       PRES   REMARKS
ST. LOUIS INTL PTCLDY    43  20  39 W9        30.06S
SPIRIT OF STL  CLEAR     43  20  39 W12       30.05F
COLUMBIA       CLEAR     42  24  49 SW17      30.04F WCI  34
JEFFERSON CITY CLEAR     43  25  49 W9        30.07S
ROLLA          MOCLDY    41  25  53 W14       30.07F WCI  33
OSAGE BEACH    PTCLDY    43  26  51 W10       30.08F
SPRINGFIELD    CLEAR     44  25  47 W13G23    30.09S
BRANSON        CLEAR     45  25  45 W13       30.11F
JOPLIN         CLEAR     46  25  43 W12G17    30.12F
WEST PLAINS    CLEAR     46  26  45 W10       30.10S

$$

IAZ060-094-KSZ022-034>040-054-083-096-NEZ052-066-093-152300-
...KANSAS...SOUTHEAST NEBRASKA AND IOWA...

CITY           SKY/WX    TMP DP  RH WIND       PRES   REMARKS
TOPEKA         CLEAR     49  25  39 SW15G21   30.00F
MANHATTAN      CLEAR     52  24  33 SW16G23   29.95F
EMPORIA        CLEAR     48  24  39 SW15      30.04F
CHANUTE        CLEAR     48  23  37 SW12G20   30.09F
WICHITA        SUNNY     50  25  37 SW15      30.05F
OMAHA          PTCLDY    49  24  37 SW13G24   29.84F
LINCOLN        CLEAR     49  26  41 SW17      29.87F
FALLS CITY     CLEAR     48  24  39 SW15G21   29.93F
LAMONI         CLEAR     43  20  39 SW16      29.91F
DES MOINES     CLOUDY    45  21  38 SW22      29.86F

$$





USA.gov is the U.S. government's official web portal to all federal, state and local government web resources and services.